| time (UTC) | temp C | wind direction | speed KPH | gust KPH | rain 1hr cm | rain 24hr cm | rain mn cm | humidity % | barometer mb |
| 20260905003322 | 27 | 189 | 11.3 | 16.1 | 0.00 | 0.00 | 0.03 | 29 | 1021.0 |
| 20260905002822 | 27 | 175 | 12.9 | 16.1 | 0.00 | 0.00 | 0.03 | 29 | 1021.0 |
| 20260905002323 | 28 | 193 | 12.9 | 16.1 | 0.00 | 0.00 | 0.03 | 28 | 1021.0 |
| 20260905001822 | 28 | 178 | 11.3 | 17.7 | 0.00 | 0.00 | 0.03 | 29 | 1021.0 |
| 20260905001322 | 27 | 184 | 8.0 | 12.9 | 0.00 | 0.00 | 0.03 | 29 | 1021.0 |
| 20260905000822 | 27 | 170 | 11.3 | 16.1 | 0.00 | 0.00 | 0.03 | 28 | 1021.0 |
| 20260905000325 | 27 | 199 | 8.0 | 12.9 | 0.00 | 0.00 | 0.03 | 30 | 1021.0 |
| 20260904235822 | 27 | 183 | 8.0 | 11.3 | 0.00 | 0.00 | 0.03 | 30 | 1021.0 |
| 20260904235323 | 27 | 163 | 11.3 | 14.5 | 0.00 | 0.00 | 0.03 | 29 | 1021.0 |
| 20260904234822 | 27 | 177 | 9.7 | 14.5 | 0.00 | 0.00 | 0.03 | 30 | 1021.0 |
| 20260904234322 | 27 | 174 | 8.0 | 12.9 | 0.00 | 0.00 | 0.03 | 30 | 1021.0 |
| 20260904233823 | 27 | 171 | 8.0 | 11.3 | 0.00 | 0.00 | 0.03 | 30 | 1021.0 |
| 20260904233322 | 27 | 161 | 6.4 | 9.7 | 0.00 | 0.00 | 0.03 | 29 | 1021.0 |
| 20260904232822 | 27 | 178 | 4.8 | 6.4 | 0.00 | 0.00 | 0.03 | 29 | 1021.0 |
| 20260904232322 | 27 | 190 | 9.7 | 14.5 | 0.00 | 0.00 | 0.03 | 28 | 1021.0 |
| 20260904231823 | 27 | 162 | 11.3 | 12.9 | 0.00 | 0.00 | 0.03 | 29 | 1021.0 |
| 20260904231323 | 27 | 165 | 6.4 | 9.7 | 0.00 | 0.00 | 0.03 | 30 | 1021.0 |
| 20260904230822 | 27 | 178 | 9.7 | 14.5 | 0.00 | 0.00 | 0.03 | 29 | 1021.0 |
| 20260904230324 | 27 | 178 | 8.0 | 11.3 | 0.00 | 0.00 | 0.03 | 29 | 1021.0 |
| 20260904225822 | 27 | 152 | 11.3 | 14.5 | 0.00 | 0.00 | 0.03 | 29 | 1021.0 |
| 20260904225322 | 27 | 179 | 8.0 | 9.7 | 0.00 | 0.00 | 0.03 | 29 | 1021.0 |
| 20260904224823 | 27 | 187 | 8.0 | 14.5 | 0.00 | 0.00 | 0.03 | 29 | 1021.0 |
| 20260904224323 | 27 | 175 | 8.0 | 9.7 | 0.00 | 0.00 | 0.03 | 29 | 1021.0 |
| 20260904223822 | 27 | 152 | 12.9 | 16.1 | 0.00 | 0.00 | 0.03 | 29 | 1021.0 |
| 20260904223322 | 28 | 166 | 11.3 | 14.5 | 0.00 | 0.00 | 0.03 | 28 | 1021.0 |
| 20260904222822 | 28 | 160 | 9.7 | 11.3 | 0.00 | 0.00 | 0.03 | 28 | 1021.0 |
| 20260904222323 | 28 | 162 | 12.9 | 17.7 | 0.00 | 0.00 | 0.03 | 28 | 1021.0 |
| 20260904221824 | 28 | 123 | 1.6 | 3.2 | 0.00 | 0.00 | 0.03 | 27 | 1021.0 |
| 20260904221322 | 28 | 149 | 8.0 | 11.3 | 0.00 | 0.00 | 0.03 | 28 | 1021.0 |
| 20260904220823 | 28 | 200 | 6.4 | 9.7 | 0.00 | 0.00 | 0.03 | 29 | 1021.0 |
| 20260904220323 | 28 | 199 | 0.0 | 3.2 | 0.00 | 0.00 | 0.00 | 28 | 1021.0 |
| 20260904215822 | 28 | 56 | 1.6 | 3.2 | 0.00 | 0.00 | 0.00 | 27 | 1021.0 |
| 20260904215322 | 28 | 68 | 1.6 | 4.8 | 0.00 | 0.00 | 0.00 | 28 | 1021.0 |
| 20260904214824 | 28 | 116 | 3.2 | 6.4 | 0.00 | 0.00 | 0.00 | 26 | 1021.0 |
| 20260904214322 | 28 | 114 | 4.8 | 8.0 | 0.00 | 0.00 | 0.00 | 25 | 1021.0 |
| 20260904213822 | 28 | 70 | 3.2 | 3.2 | 0.00 | 0.00 | 0.00 | 26 | 1021.0 |
| 20260904213322 | 28 | 125 | 6.4 | 9.7 | 0.00 | 0.00 | 0.00 | 25 | 1021.0 |
| 20260904212823 | 28 | 124 | 3.2 | 6.4 | 0.00 | 0.00 | 0.00 | 26 | 1021.0 |
| 20260904212322 | 28 | 126 | 8.0 | 12.9 | 0.00 | 0.00 | 0.00 | 26 | 1021.0 |
| 20260904211822 | 28 | 109 | 3.2 | 6.4 | 0.00 | 0.00 | 0.00 | 26 | 1021.0 |
| 20260904211324 | 28 | 131 | 3.2 | 6.4 | 0.00 | 0.00 | 0.00 | 27 | 1021.0 |
| 20260904210822 | 29 | 160 | 3.2 | 4.8 | 0.00 | 0.00 | 0.00 | 25 | 1021.0 |
| 20260904210323 | 29 | 142 | 3.2 | 6.4 | 0.00 | 0.00 | 0.00 | 25 | 1021.0 |
| 20260904205827 | 29 | 171 | 3.2 | 4.8 | 0.00 | 0.00 | 0.00 | 26 | 1021.0 |
| 20260904205322 | 28 | 85 | 0.0 | 3.2 | 0.00 | 0.00 | 0.00 | 25 | 1021.0 |
| 20260904204823 | 28 | 170 | 0.0 | 3.2 | 0.00 | 0.00 | 0.00 | 25 | 1022.0 |
| 20260904204322 | 28 | 150 | 8.0 | 11.3 | 0.00 | 0.00 | 0.00 | 26 | 1022.0 |
| 20260904203822 | 28 | 168 | 6.4 | 8.0 | 0.00 | 0.00 | 0.00 | 27 | 1022.0 |
| 20260904203322 | 28 | 155 | 9.7 | 14.5 | 0.00 | 0.00 | 0.00 | 26 | 1022.0 |
| 20260904202823 | 28 | 222 | 8.0 | 12.9 | 0.00 | 0.00 | 0.00 | 26 | 1022.0 |
| 20260904202322 | 28 | 167 | 4.8 | 8.0 | 0.00 | 0.00 | 0.00 | 26 | 1022.0 |
| 20260904201822 | 28 | 231 | 8.0 | 9.7 | 0.00 | 0.00 | 0.00 | 26 | 1022.0 |
| 20260904201322 | 28 | 160 | 8.0 | 14.5 | 0.00 | 0.00 | 0.00 | 25 | 1022.0 |
| 20260904200823 | 28 | 143 | 0.0 | 3.2 | 0.00 | 0.00 | 0.00 | 26 | 1022.0 |
| 20260904200323 | 29 | 144 | 8.0 | 9.7 | 0.00 | 0.00 | 0.00 | 25 | 1022.0 |
| 20260904195822 | 28 | 146 | 4.8 | 9.7 | 0.00 | 0.00 | 0.00 | 25 | 1022.0 |
| 20260904195323 | 28 | 131 | 8.0 | 9.7 | 0.00 | 0.00 | 0.00 | 24 | 1022.0 |
| 20260904194823 | 28 | 157 | 9.7 | 12.9 | 0.00 | 0.00 | 0.00 | 26 | 1022.0 |
| 20260904194322 | 28 | 131 | 6.4 | 12.9 | 0.00 | 0.00 | 0.00 | 26 | 1022.0 |
| 20260904193822 | 28 | 135 | 3.2 | 6.4 | 0.00 | 0.00 | 0.00 | 26 | 1022.0 |
| 20260904193322 | 28 | 146 | 11.3 | 14.5 | 0.00 | 0.00 | 0.00 | 26 | 1022.0 |
| 20260904192822 | 28 | 147 | 3.2 | 6.4 | 0.00 | 0.00 | 0.00 | 27 | 1022.0 |
| 20260904192323 | 28 | 130 | 6.4 | 9.7 | 0.00 | 0.00 | 0.00 | 26 | 1022.0 |
| 20260904191823 | 28 | 112 | 8.0 | 11.3 | 0.00 | 0.00 | 0.00 | 26 | 1022.0 |
| 20260904191322 | 27 | 163 | 8.0 | 11.3 | 0.00 | 0.00 | 0.00 | 26 | 1022.0 |
| 20260904190822 | 28 | 167 | 6.4 | 12.9 | 0.00 | 0.00 | 0.00 | 26 | 1022.0 |
| 20260904190322 | 28 | 133 | 4.8 | 9.7 | 0.00 | 0.00 | 0.00 | 26 | 1022.0 |
| 20260904185823 | 28 | 133 | 9.7 | 12.9 | 0.00 | 0.00 | 0.00 | 26 | 1022.0 |
| 20260904185322 | 28 | 155 | 3.2 | 9.7 | 0.00 | 0.00 | 0.00 | 25 | 1022.0 |
| 20260904184822 | 28 | 104 | 6.4 | 11.3 | 0.00 | 0.00 | 0.00 | 25 | 1022.0 |
| 20260904184322 | 28 | 143 | 6.4 | 9.7 | 0.00 | 0.00 | 0.00 | 26 | 1022.0 |
| 20260904183822 | 28 | 253 | 4.8 | 8.0 | 0.00 | 0.00 | 0.00 | 27 | 1022.0 |
| 20260904183322 | 28 | 292 | 8.0 | 12.9 | 0.00 | 0.00 | 0.00 | 27 | 1023.0 |
| 20260904182823 | 28 | 238 | 9.7 | 17.7 | 0.00 | 0.00 | 0.00 | 26 | 1023.0 |
| 20260904182322 | 28 | 278 | 9.7 | 12.9 | 0.00 | 0.00 | 0.00 | 28 | 1023.0 |
| 20260904181822 | 28 | 310 | 8.0 | 12.9 | 0.00 | 0.00 | 0.00 | 27 | 1023.0 |
| 20260904181323 | 27 | 302 | 11.3 | 14.5 | 0.00 | 0.00 | 0.00 | 29 | 1023.0 |
| 20260904180823 | 28 | 295 | 14.5 | 17.7 | 0.00 | 0.00 | 0.00 | 28 | 1023.0 |
| 20260904180322 | 27 | 300 | 11.3 | 14.5 | 0.00 | 0.00 | 0.00 | 28 | 1023.0 |
| 20260904175822 | 27 | 240 | 3.2 | 8.0 | 0.00 | 0.00 | 0.00 | 28 | 1023.0 |
| 20260904175322 | 27 | 277 | 6.4 | 11.3 | 0.00 | 0.00 | 0.00 | 29 | 1023.0 |
| 20260904174822 | 27 | 310 | 3.2 | 6.4 | 0.00 | 0.00 | 0.00 | 28 | 1023.0 |
| 20260904174322 | 27 | 292 | 12.9 | 14.5 | 0.00 | 0.00 | 0.00 | 28 | 1023.0 |
| 20260904173825 | 27 | 315 | 11.3 | 16.1 | 0.00 | 0.00 | 0.00 | 28 | 1023.0 |
| 20260904173323 | 27 | 296 | 4.8 | 9.7 | 0.00 | 0.00 | 0.00 | 30 | 1023.0 |
| 20260904172823 | 27 | 271 | 11.3 | 16.1 | 0.00 | 0.00 | 0.00 | 29 | 1023.0 |
| 20260904172322 | 27 | 248 | 4.8 | 9.7 | 0.00 | 0.00 | 0.00 | 28 | 1023.0 |
| 20260904171822 | 27 | 292 | 11.3 | 17.7 | 0.00 | 0.00 | 0.00 | 30 | 1023.0 |
| 20260904171323 | 27 | 228 | 9.7 | 19.3 | 0.00 | 0.00 | 0.00 | 29 | 1023.0 |
| 20260904170822 | 27 | 249 | 6.4 | 12.9 | 0.00 | 0.00 | 0.00 | 29 | 1023.0 |
| 20260904170323 | 26 | 245 | 4.8 | 12.9 | 0.00 | 0.00 | 0.00 | 29 | 1023.0 |
| 20260904165823 | 26 | 270 | 6.4 | 11.3 | 0.00 | 0.00 | 0.00 | 29 | 1023.0 |
| 20260904165322 | 26 | 297 | 6.4 | 11.3 | 0.00 | 0.00 | 0.00 | 29 | 1023.0 |
| 20260904164822 | 26 | 298 | 12.9 | 16.1 | 0.00 | 0.00 | 0.00 | 29 | 1023.0 |
| 20260904164323 | 26 | 295 | 12.9 | 17.7 | 0.00 | 0.00 | 0.00 | 30 | 1023.0 |
| 20260904163823 | 26 | 269 | 9.7 | 17.7 | 0.00 | 0.00 | 0.00 | 30 | 1023.0 |
| 20260904163322 | 26 | 276 | 4.8 | 9.7 | 0.00 | 0.00 | 0.00 | 29 | 1023.0 |
| 20260904162822 | 26 | 298 | 4.8 | 8.0 | 0.00 | 0.00 | 0.00 | 29 | 1023.0 |
| 20260904162322 | 25 | 289 | 4.8 | 8.0 | 0.00 | 0.00 | 0.00 | 30 | 1023.0 |
| 20260904161822 | 25 | 268 | 14.5 | 20.9 | 0.00 | 0.00 | 0.00 | 30 | 1023.0 |
| 20260904161324 | 25 | 283 | 16.1 | 22.5 | 0.00 | 0.00 | 0.00 | 30 | 1023.0 |
| 20260904160823 | 25 | 273 | 12.9 | 24.1 | 0.00 | 0.00 | 0.00 | 31 | 1023.0 |
| 20260904160324 | 25 | 270 | 8.0 | 12.9 | 0.00 | 0.00 | 0.00 | 30 | 1023.0 |
| 20260904155823 | 25 | 301 | 9.7 | 12.9 | 0.00 | 0.00 | 0.00 | 30 | 1023.0 |
| 20260904155323 | 25 | 288 | 4.8 | 8.0 | 0.00 | 0.00 | 0.00 | 31 | 1023.0 |
| 20260904154822 | 25 | 360 | 3.2 | 6.4 | 0.00 | 0.00 | 0.00 | 31 | 1023.0 |
| 20260904154322 | 25 | 285 | 6.4 | 9.7 | 0.00 | 0.00 | 0.00 | 30 | 1023.0 |
| 20260904153827 | 25 | 276 | 9.7 | 16.1 | 0.00 | 0.00 | 0.00 | 31 | 1023.0 |
| 20260904153323 | 25 | 277 | 8.0 | 12.9 | 0.00 | 0.00 | 0.00 | 31 | 1023.0 |
| 20260904152822 | 25 | 299 | 4.8 | 9.7 | 0.00 | 0.00 | 0.00 | 31 | 1023.0 |
| 20260904152322 | 25 | 255 | 3.2 | 6.4 | 0.00 | 0.00 | 0.00 | 31 | 1023.0 |
| 20260904151823 | 25 | 304 | 4.8 | 6.4 | 0.00 | 0.00 | 0.00 | 32 | 1023.0 |
| 20260904151323 | 25 | 340 | 4.8 | 8.0 | 0.00 | 0.00 | 0.00 | 31 | 1023.0 |
| 20260904150825 | 25 | 70 | 6.4 | 9.7 | 0.00 | 0.00 | 0.00 | 31 | 1023.0 |
| 20260904150323 | 25 | 26 | 3.2 | 6.4 | 0.00 | 0.00 | 0.00 | 30 | 1023.0 |
| 20260904145824 | 25 | 239 | 1.6 | 3.2 | 0.00 | 0.00 | 0.00 | 31 | 1023.0 |
| 20260904145322 | 25 | 70 | 3.2 | 9.7 | 0.00 | 0.00 | 0.00 | 31 | 1023.0 |
| 20260904144824 | 25 | 88 | 1.6 | 4.8 | 0.00 | 0.00 | 0.00 | 31 | 1023.0 |
| 20260904144324 | 24 | 85 | 3.2 | 4.8 | 0.00 | 0.00 | 0.00 | 30 | 1023.0 |
| 20260904143822 | 24 | 104 | 6.4 | 9.7 | 0.00 | 0.00 | 0.00 | 30 | 1023.0 |
| 20260904143324 | 24 | 27 | 4.8 | 8.0 | 0.00 | 0.00 | 0.00 | 31 | 1023.0 |
| 20260904142823 | 23 | 93 | 1.6 | 4.8 | 0.00 | 0.00 | 0.00 | 31 | 1023.0 |
| 20260904142322 | 23 | 84 | 3.2 | 4.8 | 0.00 | 0.00 | 0.00 | 30 | 1023.0 |
| 20260904141823 | 23 | 76 | 1.6 | 4.8 | 0.00 | 0.00 | 0.00 | 31 | 1023.0 |
| 20260904141323 | 23 | 52 | 1.6 | 4.8 | 0.00 | 0.00 | 0.00 | 31 | 1023.0 |
| 20260904140823 | 22 | 68 | 1.6 | 3.2 | 0.00 | 0.00 | 0.00 | 32 | 1023.0 |
| 20260904140322 | 22 | 147 | 1.6 | 4.8 | 0.00 | 0.00 | 0.00 | 34 | 1023.0 |
| 20260904135823 | 22 | 73 | 3.2 | 8.0 | 0.00 | 0.00 | 0.00 | 34 | 1023.0 |
| 20260904135323 | 22 | 360 | 0.0 | 0.0 | 0.00 | 0.00 | 0.00 | 33 | 1023.0 |
| 20260904134823 | 21 | 58 | 1.6 | 3.2 | 0.00 | 0.00 | 0.00 | 32 | 1023.0 |
| 20260904134323 | 21 | 312 | 1.6 | 3.2 | 0.00 | 0.00 | 0.00 | 35 | 1023.0 |
| 20260904133823 | 20 | 290 | 0.0 | 1.6 | 0.00 | 0.00 | 0.00 | 35 | 1023.0 |
| 20260904133322 | 20 | 4 | 0.0 | 1.6 | 0.00 | 0.00 | 0.00 | 35 | 1023.0 |
| 20260904132823 | 20 | 257 | 0.0 | 3.2 | 0.00 | 0.00 | 0.00 | 36 | 1022.0 |
| 20260904132322 | 19 | 155 | 0.0 | 3.2 | 0.00 | 0.00 | 0.00 | 38 | 1022.0 |
| 20260904131831 | 19 | 227 | 0.0 | 3.2 | 0.00 | 0.00 | 0.00 | 36 | 1022.0 |
| 20260904131324 | 18 | 34 | 1.6 | 3.2 | 0.00 | 0.00 | 0.00 | 36 | 1022.0 |
| 20260904130822 | 18 | 310 | 3.2 | 4.8 | 0.00 | 0.00 | 0.00 | 36 | 1022.0 |
| 20260904130322 | 18 | 356 | 3.2 | 6.4 | 0.00 | 0.00 | 0.00 | 37 | 1022.0 |
| 20260904125822 | 18 | 319 | 3.2 | 6.4 | 0.00 | 0.00 | 0.00 | 36 | 1022.0 |
| 20260904125322 | 18 | 355 | 4.8 | 6.4 | 0.00 | 0.00 | 0.00 | 36 | 1022.0 |
| 20260904124823 | 18 | 97 | 1.6 | 4.8 | 0.00 | 0.00 | 0.00 | 36 | 1022.0 |
| 20260904124322 | 18 | 10 | 3.2 | 3.2 | 0.00 | 0.00 | 0.00 | 36 | 1022.0 |
| 20260904123822 | 19 | 185 | 6.4 | 9.7 | 0.00 | 0.00 | 0.00 | 34 | 1022.0 |
| 20260904123323 | 18 | 179 | 1.6 | 3.2 | 0.00 | 0.00 | 0.00 | 35 | 1022.0 |
| 20260904122823 | 18 | 224 | 3.2 | 4.8 | 0.00 | 0.00 | 0.00 | 36 | 1022.0 |
| 20260904122323 | 19 | 282 | 1.6 | 3.2 | 0.00 | 0.00 | 0.00 | 34 | 1022.0 |
| 20260904121824 | 19 | 3 | 6.4 | 11.3 | 0.00 | 0.00 | 0.00 | 34 | 1022.0 |
| 20260904121322 | 18 | 54 | 1.6 | 4.8 | 0.00 | 0.00 | 0.00 | 34 | 1022.0 |
| 20260904120822 | 18 | 347 | 1.6 | 4.8 | 0.00 | 0.00 | 0.00 | 35 | 1021.0 |
| 20260904120322 | 18 | 316 | 3.2 | 6.4 | 0.00 | 0.00 | 0.00 | 36 | 1021.0 |
| 20260904115823 | 18 | 173 | 3.2 | 6.4 | 0.00 | 0.00 | 0.00 | 35 | 1021.0 |
| 20260904115325 | 18 | 24 | 3.2 | 6.4 | 0.00 | 0.00 | 0.00 | 34 | 1021.0 |
| 20260904114824 | 18 | 344 | 1.6 | 4.8 | 0.00 | 0.00 | 0.00 | 34 | 1021.0 |
| 20260904114323 | 19 | 65 | 0.0 | 3.2 | 0.00 | 0.00 | 0.00 | 34 | 1021.0 |
| 20260904113822 | 19 | 4 | 0.0 | 1.6 | 0.00 | 0.00 | 0.00 | 32 | 1021.0 |
| 20260904113324 | 19 | 17 | 3.2 | 8.0 | 0.00 | 0.00 | 0.00 | 33 | 1021.0 |
| 20260904112822 | 19 | 327 | 3.2 | 4.8 | 0.00 | 0.00 | 0.00 | 32 | 1021.0 |
| 20260904112323 | 19 | 346 | 4.8 | 6.4 | 0.00 | 0.00 | 0.00 | 32 | 1021.0 |
| 20260904111822 | 19 | 349 | 3.2 | 8.0 | 0.00 | 0.00 | 0.00 | 33 | 1021.0 |
| 20260904111322 | 18 | 323 | 1.6 | 4.8 | 0.00 | 0.00 | 0.00 | 33 | 1021.0 |
| 20260904110822 | 19 | 7 | 0.0 | 3.2 | 0.00 | 0.00 | 0.00 | 33 | 1021.0 |
| 20260904110322 | 18 | 15 | 3.2 | 3.2 | 0.00 | 0.00 | 0.00 | 33 | 1021.0 |
| 20260904105822 | 18 | 13 | 4.8 | 6.4 | 0.00 | 0.00 | 0.00 | 34 | 1021.0 |
| 20260904105323 | 19 | 334 | 3.2 | 6.4 | 0.00 | 0.00 | 0.00 | 33 | 1021.0 |
| 20260904104822 | 19 | 358 | 6.4 | 11.3 | 0.00 | 0.00 | 0.00 | 32 | 1021.0 |
| 20260904104322 | 19 | 346 | 3.2 | 6.4 | 0.00 | 0.00 | 0.00 | 33 | 1021.0 |
| 20260904103823 | 20 | 325 | 4.8 | 8.0 | 0.00 | 0.00 | 0.00 | 32 | 1021.0 |
| 20260904103321 | 20 | 39 | 1.6 | 3.2 | 0.00 | 0.00 | 0.00 | 31 | 1021.0 |
| 20260904102823 | 20 | 19 | 3.2 | 3.2 | 0.00 | 0.00 | 0.00 | 32 | 1021.0 |
| 20260904102323 | 19 | 159 | 6.4 | 11.3 | 0.00 | 0.00 | 0.00 | 31 | 1021.0 |
| 20260904101822 | 19 | 197 | 3.2 | 6.4 | 0.00 | 0.00 | 0.00 | 33 | 1021.0 |
| 20260904101322 | 18 | 345 | 3.2 | 4.8 | 0.00 | 0.00 | 0.00 | 32 | 1021.0 |
| 20260904100822 | 18 | 334 | 3.2 | 6.4 | 0.00 | 0.00 | 0.00 | 34 | 1021.0 |
| 20260904100323 | 18 | 267 | 3.2 | 3.2 | 0.00 | 0.00 | 0.00 | 36 | 1021.0 |
| 20260904095822 | 18 | 308 | 4.8 | 6.4 | 0.00 | 0.00 | 0.00 | 35 | 1021.0 |
| 20260904095322 | 18 | 67 | 3.2 | 6.4 | 0.00 | 0.00 | 0.00 | 36 | 1021.0 |
| 20260904094822 | 17 | 51 | 6.4 | 8.0 | 0.00 | 0.00 | 0.00 | 36 | 1021.0 |
| 20260904094322 | 17 | 3 | 3.2 | 4.8 | 0.00 | 0.00 | 0.00 | 38 | 1021.0 |
| 20260904093823 | 18 | 40 | 3.2 | 3.2 | 0.00 | 0.00 | 0.00 | 35 | 1021.0 |
| 20260904093323 | 17 | 215 | 1.6 | 4.8 | 0.00 | 0.00 | 0.00 | 36 | 1021.0 |
| 20260904092822 | 17 | 319 | 3.2 | 3.2 | 0.00 | 0.00 | 0.00 | 40 | 1021.0 |
| 20260904092323 | 16 | 194 | 3.2 | 6.4 | 0.00 | 0.00 | 0.00 | 38 | 1021.0 |
| 20260904091822 | 16 | 67 | 4.8 | 9.7 | 0.00 | 0.00 | 0.00 | 44 | 1020.0 |
| 20260904091323 | 15 | 76 | 6.4 | 11.3 | 0.00 | 0.00 | 0.00 | 47 | 1020.0 |
| 20260904090822 | 14 | 51 | 1.6 | 4.8 | 0.00 | 0.00 | 0.00 | 52 | 1020.0 |
| 20260904090322 | 14 | 34 | 3.2 | 6.4 | 0.00 | 0.00 | 0.00 | 54 | 1020.0 |
| 20260904085822 | 14 | 23 | 4.8 | 6.4 | 0.00 | 0.00 | 0.00 | 56 | 1020.0 |
| 20260904085322 | 14 | 22 | 6.4 | 8.0 | 0.00 | 0.00 | 0.00 | 54 | 1020.0 |
| 20260904084826 | 14 | 2 | 3.2 | 4.8 | 0.00 | 0.00 | 0.00 | 59 | 1020.0 |
| 20260904084322 | 13 | 25 | 1.6 | 3.2 | 0.00 | 0.00 | 0.00 | 60 | 1020.0 |
| 20260904083822 | 13 | 285 | 1.6 | 1.6 | 0.00 | 0.00 | 0.00 | 63 | 1021.0 |
| 20260904083323 | 13 | 210 | 6.4 | 8.0 | 0.00 | 0.00 | 0.00 | 64 | 1021.0 |
| 20260904082823 | 13 | 44 | 3.2 | 4.8 | 0.00 | 0.00 | 0.00 | 63 | 1020.0 |
| 20260904082323 | 13 | 3 | 4.8 | 8.0 | 0.00 | 0.00 | 0.00 | 61 | 1021.0 |
| 20260904081823 | 14 | 354 | 4.8 | 6.4 | 0.00 | 0.00 | 0.00 | 59 | 1021.0 |
| 20260904081322 | 14 | 325 | 3.2 | 4.8 | 0.00 | 0.00 | 0.00 | 59 | 1021.0 |
| 20260904080822 | 14 | 346 | 3.2 | 4.8 | 0.00 | 0.00 | 0.00 | 59 | 1021.0 |
| 20260904080322 | 14 | 354 | 3.2 | 6.4 | 0.00 | 0.00 | 0.00 | 59 | 1021.0 |
| 20260904075822 | 14 | 360 | 1.6 | 3.2 | 0.00 | 0.00 | 0.00 | 57 | 1021.0 |
| 20260904075322 | 14 | 19 | 3.2 | 4.8 | 0.00 | 0.00 | 0.00 | 57 | 1021.0 |
| 20260904074822 | 14 | 355 | 3.2 | 3.2 | 0.00 | 0.00 | 0.00 | 57 | 1021.0 |
| 20260904074322 | 14 | 3 | 3.2 | 6.4 | 0.00 | 0.00 | 0.00 | 58 | 1021.0 |
| 20260904073823 | 14 | 353 | 1.6 | 3.2 | 0.00 | 0.00 | 0.00 | 60 | 1021.0 |
| 20260904073322 | 15 | 22 | 3.2 | 4.8 | 0.00 | 0.00 | 0.00 | 55 | 1021.0 |
| 20260904072822 | 14 | 13 | 3.2 | 8.0 | 0.00 | 0.00 | 0.00 | 55 | 1021.0 |
| 20260904072322 | 14 | 351 | 3.2 | 4.8 | 0.00 | 0.00 | 0.00 | 58 | 1021.0 |
| 20260904071822 | 13 | 343 | 4.8 | 6.4 | 0.00 | 0.00 | 0.00 | 59 | 1021.0 |
| 20260904071322 | 14 | 349 | 4.8 | 8.0 | 0.00 | 0.00 | 0.00 | 60 | 1021.0 |
| 20260904070822 | 15 | 6 | 3.2 | 6.4 | 0.00 | 0.00 | 0.00 | 60 | 1021.0 |
| 20260904070324 | 16 | 350 | 3.2 | 6.4 | 0.00 | 0.00 | 0.00 | 56 | 1021.0 |
| 20260904065822 | 16 | 292 | 6.4 | 8.0 | 0.00 | 0.00 | 0.00 | 57 | 1021.0 |
| 20260904065322 | 16 | 282 | 6.4 | 8.0 | 0.00 | 0.00 | 0.00 | 57 | 1021.0 |
| 20260904064822 | 16 | 262 | 1.6 | 3.2 | 0.00 | 0.00 | 0.00 | 56 | 1021.0 |
| 20260904064322 | 16 | 288 | 1.6 | 3.2 | 0.00 | 0.00 | 0.00 | 58 | 1021.0 |
| 20260904063822 | 16 | 283 | 6.4 | 6.4 | 0.00 | 0.00 | 0.00 | 59 | 1021.0 |
| 20260904063322 | 16 | 295 | 8.0 | 9.7 | 0.00 | 0.00 | 0.00 | 57 | 1021.0 |
| 20260904062822 | 16 | 287 | 6.4 | 8.0 | 0.00 | 0.00 | 0.00 | 58 | 1021.0 |
| 20260904062324 | 16 | 289 | 8.0 | 11.3 | 0.00 | 0.00 | 0.00 | 59 | 1021.0 |
| 20260904061822 | 16 | 283 | 6.4 | 9.7 | 0.00 | 0.00 | 0.00 | 58 | 1021.0 |
| 20260904061323 | 17 | 278 | 4.8 | 9.7 | 0.00 | 0.00 | 0.00 | 50 | 1021.0 |
| 20260904060822 | 17 | 360 | 0.0 | 0.0 | 0.00 | 0.00 | 0.00 | 54 | 1021.0 |
| 20260904060324 | 17 | 285 | 3.2 | 4.8 | 0.00 | 0.00 | 0.00 | 53 | 1021.0 |
| 20260904055822 | 17 | 288 | 11.3 | 14.5 | 0.00 | 0.00 | 0.00 | 57 | 1021.0 |
| 20260904055323 | 17 | 344 | 1.6 | 3.2 | 0.00 | 0.00 | 0.00 | 45 | 1021.0 |
| 20260904054823 | 18 | 297 | 1.6 | 1.6 | 0.00 | 0.00 | 0.00 | 45 | 1021.0 |
| 20260904054322 | 18 | 360 | 0.0 | 0.0 | 0.00 | 0.00 | 0.00 | 43 | 1021.0 |
| 20260904053822 | 18 | 360 | 0.0 | 0.0 | 0.00 | 0.00 | 0.00 | 43 | 1021.0 |
| 20260904053322 | 18 | 145 | 0.0 | 3.2 | 0.00 | 0.00 | 0.00 | 41 | 1021.0 |
| 20260904052822 | 19 | 135 | 0.0 | 0.0 | 0.00 | 0.00 | 0.00 | 40 | 1021.0 |
| 20260904052323 | 19 | 120 | 3.2 | 3.2 | 0.00 | 0.00 | 0.00 | 40 | 1021.0 |
| 20260904051822 | 19 | 160 | 1.6 | 3.2 | 0.00 | 0.00 | 0.00 | 40 | 1021.0 |
| 20260904051322 | 19 | 192 | 3.2 | 4.8 | 0.00 | 0.00 | 0.00 | 40 | 1021.0 |
| 20260904050822 | 20 | 195 | 3.2 | 3.2 | 0.00 | 0.00 | 0.00 | 39 | 1021.0 |
| 20260904050322 | 20 | 169 | 3.2 | 4.8 | 0.00 | 0.00 | 0.00 | 38 | 1021.0 |
| 20260904045823 | 19 | 170 | 4.8 | 6.4 | 0.00 | 0.00 | 0.00 | 39 | 1022.0 |
| 20260904045322 | 19 | 137 | 0.0 | 1.6 | 0.00 | 0.00 | 0.00 | 39 | 1022.0 |
| 20260904044822 | 19 | 133 | 3.2 | 4.8 | 0.00 | 0.00 | 0.00 | 38 | 1022.0 |
| 20260904044322 | 19 | 140 | 3.2 | 4.8 | 0.00 | 0.00 | 0.00 | 38 | 1022.0 |
| 20260904043825 | 19 | 155 | 4.8 | 6.4 | 0.00 | 0.00 | 0.00 | 38 | 1022.0 |
| 20260904043323 | 20 | 167 | 3.2 | 4.8 | 0.00 | 0.00 | 0.00 | 38 | 1022.0 |
| 20260904042824 | 20 | 152 | 4.8 | 6.4 | 0.00 | 0.00 | 0.00 | 36 | 1022.0 |
| 20260904042326 | 20 | 176 | 6.4 | 8.0 | 0.00 | 0.00 | 0.00 | 36 | 1022.0 |
| 20260904041822 | 20 | 175 | 4.8 | 6.4 | 0.00 | 0.00 | 0.00 | 37 | 1022.0 |
| 20260904041323 | 19 | 164 | 6.4 | 9.7 | 0.00 | 0.00 | 0.00 | 37 | 1022.0 |
| 20260904040822 | 18 | 169 | 3.2 | 6.4 | 0.00 | 0.00 | 0.00 | 40 | 1022.0 |
| 20260904040323 | 18 | 227 | 4.8 | 6.4 | 0.00 | 0.00 | 0.00 | 45 | 1022.0 |
| 20260904035822 | 18 | 146 | 3.2 | 6.4 | 0.00 | 0.00 | 0.00 | 40 | 1022.0 |
| 20260904035326 | 18 | 135 | 0.0 | 3.2 | 0.00 | 0.00 | 0.00 | 44 | 1022.0 |
| 20260904034823 | 18 | 289 | 1.6 | 3.2 | 0.00 | 0.00 | 0.00 | 44 | 1021.0 |
| 20260904034322 | 19 | 278 | 0.0 | 1.6 | 0.00 | 0.00 | 0.00 | 38 | 1021.0 |
| 20260904033822 | 19 | 90 | 0.0 | 1.6 | 0.00 | 0.00 | 0.00 | 36 | 1021.0 |
| 20260904033322 | 19 | 142 | 0.0 | 3.2 | 0.00 | 0.00 | 0.00 | 36 | 1021.0 |
| 20260904032823 | 19 | 92 | 0.0 | 3.2 | 0.00 | 0.00 | 0.00 | 36 | 1021.0 |
| 20260904032323 | 19 | 348 | 0.0 | 1.6 | 0.00 | 0.00 | 0.00 | 35 | 1021.0 |
| 20260904031822 | 20 | 303 | 3.2 | 4.8 | 0.00 | 0.00 | 0.00 | 36 | 1021.0 |
| 20260904031324 | 20 | 27 | 1.6 | 3.2 | 0.00 | 0.00 | 0.00 | 34 | 1021.0 |
| 20260904030823 | 20 | 360 | 0.0 | 1.6 | 0.00 | 0.00 | 0.00 | 35 | 1021.0 |
| 20260904030322 | 20 | 304 | 1.6 | 3.2 | 0.00 | 0.00 | 0.00 | 36 | 1021.0 |
| 20260904025822 | 20 | 360 | 0.0 | 0.0 | 0.00 | 0.00 | 0.00 | 34 | 1021.0 |
| 20260904025322 | 21 | 284 | 0.0 | 1.6 | 0.00 | 0.00 | 0.00 | 34 | 1021.0 |
| 20260904024822 | 21 | 360 | 0.0 | 0.0 | 0.00 | 0.00 | 0.00 | 34 | 1021.0 |
| 20260904024323 | 21 | 360 | 0.0 | 0.0 | 0.00 | 0.00 | 0.00 | 34 | 1021.0 |
| 20260904023822 | 22 | 292 | 0.0 | 1.6 | 0.00 | 0.00 | 0.00 | 34 | 1021.0 |
| 20260904023324 | 22 | 151 | 1.6 | 3.2 | 0.00 | 0.00 | 0.00 | 30 | 1020.0 |
| 20260904022823 | 22 | 360 | 0.0 | 0.0 | 0.00 | 0.00 | 0.00 | 30 | 1020.0 |
| 20260904022322 | 23 | 221 | 0.0 | 1.6 | 0.00 | 0.00 | 0.00 | 29 | 1020.0 |
| 20260904021822 | 23 | 218 | 3.2 | 4.8 | 0.00 | 0.00 | 0.00 | 29 | 1020.0 |
| 20260904021322 | 23 | 194 | 4.8 | 6.4 | 0.00 | 0.00 | 0.00 | 27 | 1020.0 |
| 20260904020823 | 23 | 167 | 4.8 | 8.0 | 0.00 | 0.00 | 0.00 | 27 | 1020.0 |
| 20260904020323 | 23 | 191 | 6.4 | 6.4 | 0.00 | 0.00 | 0.00 | 27 | 1020.0 |
| 20260904015823 | 23 | 188 | 4.8 | 9.7 | 0.00 | 0.00 | 0.00 | 28 | 1020.0 |
| 20260904015323 | 24 | 196 | 4.8 | 6.4 | 0.00 | 0.00 | 0.00 | 28 | 1020.0 |
| 20260904014822 | 24 | 189 | 3.2 | 6.4 | 0.00 | 0.00 | 0.00 | 28 | 1020.0 |
| 20260904014322 | 24 | 189 | 6.4 | 9.7 | 0.00 | 0.00 | 0.00 | 27 | 1020.0 |
| 20260904013823 | 24 | 203 | 4.8 | 8.0 | 0.00 | 0.00 | 0.00 | 27 | 1020.0 |
| 20260904013326 | 24 | 196 | 6.4 | 14.5 | 0.00 | 0.00 | 0.00 | 27 | 1020.0 |
| 20260904012823 | 25 | 196 | 6.4 | 8.0 | 0.00 | 0.00 | 0.00 | 27 | 1020.0 |
| 20260904012323 | 25 | 192 | 4.8 | 6.4 | 0.00 | 0.00 | 0.00 | 27 | 1020.0 |
| 20260904011823 | 25 | 202 | 3.2 | 6.4 | 0.00 | 0.00 | 0.00 | 26 | 1020.0 |
| 20260904011324 | 26 | 205 | 4.8 | 8.0 | 0.00 | 0.00 | 0.00 | 25 | 1020.0 |
| 20260904010822 | 26 | 183 | 6.4 | 9.7 | 0.00 | 0.00 | 0.00 | 24 | 1020.0 |
| 20260904010323 | 26 | 190 | 6.4 | 8.0 | 0.00 | 0.00 | 0.00 | 24 | 1020.0 |
| 20260904005822 | 27 | 182 | 8.0 | 11.3 | 0.00 | 0.00 | 0.00 | 23 | 1020.0 |
| 20260904005322 | 27 | 197 | 6.4 | 9.7 | 0.00 | 0.00 | 0.00 | 23 | 1020.0 |
| 20260904004822 | 27 | 176 | 8.0 | 9.7 | 0.00 | 0.00 | 0.00 | 23 | 1020.0 |
| 20260904004322 | 27 | 169 | 6.4 | 9.7 | 0.00 | 0.00 | 0.00 | 23 | 1020.0 |
| 20260904003823 | 27 | 179 | 8.0 | 12.9 | 0.00 | 0.00 | 0.00 | 22 | 1020.0 |